Weather History for Elkins, WV

Change the Weather History Date:

Wednesday, May 13, 2009

  Actual Average Record
Temperature  
Mean Temperature 53 °F 57 °F  
Max Temperature 70 °F 70 °F 87 °F (2014)
Min Temperature 35 °F 45 °F 28 °F (1938)
Degree Days  
Heating Degree Days 12 8  
Month to date heating degree days 106 125  
Since 1 July heating degree days 5674 5688  
Cooling Degree Days 0 0  
Month to date cooling degree days 1 0  
Year to date cooling degree days 8 3  
Growing Degree Days 3 (Base 50)    
Moisture  
Dew Point 42 °F    
Average Humidity 69    
Maximum Humidity 100    
Minimum Humidity 37    
Precipitation  
Precipitation 0.01 in 0.17 in 1.44 in (1955)
Month to date precipitation 3.77 2.07  
Year to date precipitation 18.79 16.16  
Snow  
Snow 0.00 in - - ()
Month to date snowfall 0.0  
Since 1 September snowfall 68.1  
Snow Depth 0.00 in    
Sea Level Pressure  
Sea Level Pressure 30.26 in    
Wind  
Wind Speed 9 mph (SSE)    
Max Wind Speed 24 mph    
Max Gust Speed 35 mph    
Visibility 9 miles    
Events Rain    
T = Trace of Precipitation, MM = Missing Value Source: NWS Daily Summary

Daily Weather History Graph

Daily Weather History Graph

Search for Another Location

Airport:

Trip Planner

Search our weather history database for the weather conditions in past years. The results will help you decide how hot, cold, wet, or windy it might be!

Date:

Astronomy

May. 13, 2009 Rise Set
Actual Time 6:08 AM EDT 8:23 PM EDT
Civil Twilight 5:38 AM EDT 8:53 PM EDT
Nautical Twilight 5:02 AM EDT 9:30 PM EDT
Astronomical Twilight 4:21 AM EDT 10:10 PM EDT
Moon No Moon Rise 9:18 AM EDT (5/13)
Length of Visible Light 15h 14m
Length of Day
14h 14m
Waning Gibbous, 82% of the Moon is Illuminated
May 13
Waning Gibbous
May 17
Last Quarter
May 24
New
May 30
First Quarter
Jun 7
Full

Hourly Weather History & Observations

Time (EDT) Temp. Dew Point Humidity Pressure Visibility Wind Dir Wind Speed Gust Speed Precip Events Conditions
12:51 AM 39.0 °F 37.0 °F 93% 30.32 in 9.0 mi Calm Calm - N/A   Clear
1:51 AM 37.0 °F 35.1 °F 93% 30.30 in 7.0 mi Calm Calm - N/A   Clear
2:51 AM 37.0 °F 35.1 °F 93% 30.30 in 7.0 mi Calm Calm - N/A   Clear
3:51 AM 36.0 °F 34.0 °F 93% 30.29 in 6.0 mi Calm Calm - N/A   Clear
4:51 AM 36.0 °F 35.1 °F 97% 30.29 in 4.0 mi Calm Calm - N/A   Clear
5:51 AM 36.0 °F 34.0 °F 93% 30.30 in 5.0 mi Calm Calm - N/A   Clear
6:51 AM 37.0 °F 35.1 °F 93% 30.30 in 4.0 mi Calm Calm - N/A   Clear
7:51 AM 52.0 °F 41.0 °F 66% 30.31 in 10.0 mi ESE 3.5 mph - N/A   Clear
8:51 AM 57.9 °F 43.0 °F 58% 30.31 in 10.0 mi SSE 9.2 mph - N/A   Clear
9:51 AM 63.0 °F 45.0 °F 52% 30.31 in 10.0 mi South 12.7 mph 17.3 mph N/A   Clear
10:51 AM 64.9 °F 45.0 °F 48% 30.30 in 10.0 mi SSE 11.5 mph 17.3 mph N/A   Clear
11:51 AM 66.9 °F 45.0 °F 45% 30.29 in 10.0 mi SE 18.4 mph 24.2 mph N/A   Clear
12:51 PM 68.0 °F 46.0 °F 45% 30.27 in 10.0 mi SSE 11.5 mph 23.0 mph N/A   Partly Cloudy
1:51 PM 70.0 °F 45.0 °F 41% 30.26 in 10.0 mi SSE 18.4 mph 26.5 mph N/A   Scattered Clouds
2:51 PM 70.0 °F 45.0 °F 41% 30.25 in 10.0 mi South 10.4 mph 27.6 mph N/A   Clear
3:51 PM 69.1 °F 42.1 °F 38% 30.23 in 10.0 mi South 13.8 mph 23.0 mph N/A   Clear
4:51 PM 69.1 °F 43.0 °F 39% 30.22 in 10.0 mi SSE 10.4 mph 18.4 mph N/A   Clear
5:51 PM 69.1 °F 44.1 °F 40% 30.19 in 10.0 mi SSE 12.7 mph 23.0 mph N/A   Scattered Clouds
6:51 PM 66.9 °F 44.1 °F 44% 30.20 in 10.0 mi SSE 15.0 mph 26.5 mph N/A   Clear
7:51 PM 64.0 °F 44.1 °F 48% 30.19 in 10.0 mi SSE 9.2 mph - N/A   Partly Cloudy
8:51 PM 62.1 °F 45.0 °F 53% 30.20 in 10.0 mi SSE 8.1 mph 18.4 mph N/A   Clear
9:51 PM 62.1 °F 45.0 °F 53% 30.20 in 10.0 mi South 11.5 mph 18.4 mph N/A   Overcast
10:51 PM 62.1 °F 45.0 °F 53% 30.19 in 10.0 mi South 10.4 mph - 0.00 in   Overcast
11:51 PM 59.0 °F 46.9 °F 64% 30.16 in 8.0 mi SW 9.2 mph 29.9 mph 0.01 in Rain Light Rain